Danville, IL

4:09 AM CST on January 19, 2017 (GMT -0600)
Vermilion County

Weather History for KDNV - October, 2011

Change the Weather History Date:

Tuesday, October 25, 2011

  Actual Average (KCMI) Record (KCMI)
Temperature  
Mean Temperature 58 °F -  
Max Temperature 75 °F 60 °F 79 °F (2012)
Min Temperature 42 °F 39 °F 22 °F (2013)
Degree Days  
Heating Degree Days 6    
Growing Degree Days 8 (Base 50)    
Moisture  
Dew Point 41 °F    
Average Humidity 54    
Maximum Humidity 76    
Minimum Humidity 33    
Precipitation  
Precipitation 0.00 in - - ()
Sea Level Pressure  
Sea Level Pressure 30.00 in    
Wind  
Wind Speed 10 mph (South)    
Max Wind Speed 26 mph    
Max Gust Speed 37 mph    
Visibility 10 miles    
Events      
Averages and records for this station are not official NWS values.
T = Trace of Precipitation, MM = Missing Value Source: NWS Daily Summary

Daily Weather History Graph

Daily Weather History Graph

Search for Another Location

Airport or City:

Trip Planner

Search our weather history database for the weather conditions in past years. The results will help you decide how hot, cold, wet, or windy it might be!

Date:

Astronomy

Oct. 25, 2011 Rise Set
Actual Time 7:11 AM CDT 5:56 PM CDT
Civil Twilight 6:43 AM CDT 6:24 PM CDT
Nautical Twilight 6:12 AM CDT 6:56 PM CDT
Astronomical Twilight 5:40 AM CDT 7:27 PM CDT
Moon 5:43 AM CDT (10/25) 4:58 PM CDT (10/25)
Length of Visible Light 11h 40m
Length of Day
10h 45m
Waning Crescent, 2% of the Moon is Illuminated
Oct 25
Waning Crescent
Oct 26
New
Nov 2
First Quarter
Nov 10
Full
Nov 18
Last Quarter

Hourly Weather History & Observations

Time (CDT) Temp. Windchill Dew Point Humidity Pressure Visibility Wind Dir Wind Speed Gust Speed Precip Events Conditions
12:15 AM 46.4 °F 45.2 °F 33.8 °F 62% 30.13 in 10.0 mi SSW 3.5 mph - N/A   Clear
12:35 AM 46.4 °F 45.2 °F 35.6 °F 66% 30.13 in 10.0 mi South 3.5 mph - N/A   Clear
12:55 AM 46.4 °F 44.3 °F 33.8 °F 62% 30.13 in 10.0 mi South 4.6 mph - N/A   Clear
1:15 AM 46.4 °F 44.3 °F 33.8 °F 62% 30.13 in 10.0 mi South 4.6 mph - N/A   Clear
1:35 AM 46.4 °F 43.5 °F 35.6 °F 66% 30.13 in 10.0 mi South 5.8 mph - N/A   Clear
1:55 AM 46.4 °F 44.3 °F 35.6 °F 66% 30.13 in 10.0 mi South 4.6 mph - N/A   Clear
2:15 AM 46.4 °F 45.2 °F 33.8 °F 62% 30.13 in 10.0 mi SE 3.5 mph - N/A   Clear
2:35 AM 44.6 °F - 33.8 °F 66% 30.13 in 10.0 mi Calm Calm - N/A   Clear
2:55 AM 42.8 °F 41.1 °F 33.8 °F 70% 30.13 in 10.0 mi SSE 3.5 mph - N/A   Clear
3:15 AM 42.8 °F 40.1 °F 35.6 °F 76% 30.13 in 10.0 mi SE 4.6 mph - N/A   Clear
3:35 AM 42.8 °F 40.1 °F 35.6 °F 76% 30.12 in 10.0 mi SE 4.6 mph - N/A   Clear
3:55 AM 42.8 °F 39.3 °F 35.6 °F 76% 30.12 in 10.0 mi SE 5.8 mph - N/A   Clear
4:15 AM 42.8 °F 39.3 °F 35.6 °F 76% 30.11 in 10.0 mi SE 5.8 mph - N/A   Clear
4:35 AM 42.8 °F 39.3 °F 35.6 °F 76% 30.11 in 10.0 mi SE 5.8 mph - N/A   Clear
4:55 AM 42.8 °F 41.1 °F 35.6 °F 76% 30.10 in 10.0 mi SSE 3.5 mph - N/A   Clear
5:15 AM 42.8 °F 39.3 °F 35.6 °F 76% 30.10 in 10.0 mi SSE 5.8 mph - N/A   Clear
5:35 AM 44.6 °F 42.2 °F 35.6 °F 71% 30.10 in 10.0 mi SSE 4.6 mph - N/A   Clear
5:55 AM 42.8 °F 40.1 °F 35.6 °F 76% 30.10 in 10.0 mi SSE 4.6 mph - N/A   Clear
6:15 AM 42.8 °F 40.1 °F 35.6 °F 76% 30.10 in 10.0 mi SSE 4.6 mph - N/A   Clear
6:35 AM 42.8 °F 39.3 °F 35.6 °F 76% 30.09 in 10.0 mi SSE 5.8 mph - N/A   Scattered Clouds
6:55 AM 42.8 °F 40.1 °F 35.6 °F 76% 30.09 in 10.0 mi SSE 4.6 mph - N/A   Clear
7:15 AM 46.4 °F 41.9 °F 37.4 °F 71% 30.09 in 10.0 mi South 9.2 mph - N/A   Clear
7:35 AM 50.0 °F - 37.4 °F 62% 30.08 in 10.0 mi South 15.0 mph - N/A   Clear
7:55 AM 51.8 °F - 37.4 °F 58% 30.08 in 10.0 mi South 15.0 mph - N/A   Clear
8:15 AM 51.8 °F - 37.4 °F 58% 30.08 in 10.0 mi South 11.5 mph 20.7 mph N/A   Clear
8:35 AM 53.6 °F - 37.4 °F 54% 30.08 in 10.0 mi South 13.8 mph 21.9 mph N/A   Clear
8:55 AM 55.4 °F - 37.4 °F 51% 30.06 in 10.0 mi South 18.4 mph 24.2 mph N/A   Clear
9:15 AM 59.0 °F - 41.0 °F 51% 30.06 in 10.0 mi South 16.1 mph - N/A   Clear
9:35 AM 60.8 °F - 42.8 °F 52% 30.05 in 10.0 mi South 17.3 mph 24.2 mph N/A   Clear
9:55 AM 60.8 °F - 44.6 °F 55% 30.04 in 10.0 mi South 18.4 mph 24.2 mph N/A   Clear
10:15 AM 62.6 °F - 44.6 °F 52% 30.04 in 10.0 mi South 18.4 mph 24.2 mph N/A   Clear
10:35 AM 62.6 °F - 44.6 °F 52% 30.03 in 10.0 mi South 15.0 mph 24.2 mph N/A   Clear
10:55 AM 64.4 °F - 46.4 °F 52% 30.01 in 10.0 mi South 15.0 mph 21.9 mph N/A   Clear
11:15 AM 68.0 °F - 46.4 °F 46% 30.01 in 10.0 mi South 21.9 mph 28.8 mph N/A   Clear
11:35 AM 68.0 °F - 48.2 °F 49% 30.00 in 10.0 mi SSW 21.9 mph 28.8 mph N/A   Clear
11:55 AM 69.8 °F - 50.0 °F 49% 29.99 in 10.0 mi SSW 17.3 mph 27.6 mph N/A   Clear
12:15 PM 71.6 °F - 50.0 °F 46% 29.97 in 10.0 mi South 24.2 mph 32.2 mph N/A   Clear
12:35 PM 71.6 °F - 48.2 °F 43% 29.95 in 10.0 mi SSW 24.2 mph 32.2 mph N/A   Clear
12:55 PM 73.4 °F - 48.2 °F 41% 29.94 in 10.0 mi SSW 18.4 mph 31.1 mph N/A   Clear
1:15 PM 73.4 °F - 46.4 °F 38% 29.93 in 10.0 mi South 20.7 mph 32.2 mph N/A   Clear
1:35 PM 73.4 °F - 46.4 °F 38% 29.91 in 10.0 mi South 21.9 mph 34.5 mph N/A   Clear
1:55 PM 73.4 °F - 46.4 °F 38% 29.90 in 10.0 mi SSW 23.0 mph 32.2 mph N/A   Clear
2:15 PM 73.4 °F - 46.4 °F 38% 29.88 in 10.0 mi SSW 23.0 mph 31.1 mph N/A   Clear
2:35 PM 73.4 °F - 46.4 °F 38% 29.87 in 7.0 mi South 18.4 mph 28.8 mph N/A   Clear
2:55 PM 73.4 °F - 46.4 °F 38% 29.85 in 10.0 mi SSW 23.0 mph 31.1 mph N/A   Clear
3:15 PM 75.2 °F - 44.6 °F 34% 29.85 in 10.0 mi SSW 26.5 mph 31.1 mph N/A   Clear
3:35 PM 75.2 °F - 46.4 °F 36% 29.84 in 10.0 mi SSW 25.3 mph 32.2 mph N/A   Clear
3:55 PM 75.2 °F - 46.4 °F 36% 29.83 in 10.0 mi SSW 24.2 mph 36.8 mph N/A   Clear
4:15 PM 73.4 °F - 44.6 °F 36% 29.82 in 10.0 mi South 21.9 mph 29.9 mph N/A   Clear
4:35 PM 73.4 °F - 42.8 °F 33% 29.81 in 10.0 mi South 23.0 mph 31.1 mph N/A   Clear
4:55 PM 73.4 °F - 42.8 °F 33% 29.80 in 10.0 mi South 26.5 mph 34.5 mph N/A   Clear
5:15 PM 71.6 °F - 42.8 °F 35% 29.80 in 10.0 mi SSW 19.6 mph 32.2 mph N/A   Clear
5:35 PM 71.6 °F - 44.6 °F 38% 29.80 in 10.0 mi South 17.3 mph 26.5 mph N/A   Clear
5:55 PM 69.8 °F - 44.6 °F 40% 29.80 in 10.0 mi SSW 18.4 mph 24.2 mph N/A   Clear
6:15 PM 69.8 °F - 44.6 °F 40% 29.81 in 10.0 mi SSW 18.4 mph 26.5 mph N/A   Clear
6:35 PM 69.8 °F - 44.6 °F 40% 29.80 in 10.0 mi South 17.3 mph 24.2 mph N/A   Clear
6:55 PM 69.8 °F - 44.6 °F 40% 29.79 in 10.0 mi South 17.3 mph 23.0 mph N/A   Clear
7:15 PM 69.8 °F - 44.6 °F 40% 29.81 in 10.0 mi SSW 15.0 mph 20.7 mph N/A   Clear
7:35 PM 69.8 °F - 44.6 °F 40% 29.81 in 10.0 mi SSW 19.6 mph 24.2 mph N/A   Scattered Clouds
7:55 PM 68.0 °F - 44.6 °F 43% 29.81 in 10.0 mi SSW 17.3 mph 21.9 mph N/A   Clear
8:15 PM 68.0 °F - 44.6 °F 43% 29.80 in 10.0 mi SSW 17.3 mph 25.3 mph N/A   Clear
8:35 PM 68.0 °F - 44.6 °F 43% 29.80 in 10.0 mi SSW 20.7 mph 27.6 mph N/A   Clear
8:55 PM 68.0 °F - 44.6 °F 43% 29.79 in 10.0 mi South 21.9 mph 27.6 mph N/A   Clear
9:15 PM 68.0 °F - 44.6 °F 43% 29.79 in 10.0 mi SSW 19.6 mph 29.9 mph N/A   Clear
9:35 PM 68.0 °F - 44.6 °F 43% 29.79 in 10.0 mi SSW 20.7 mph 28.8 mph N/A   Clear
9:55 PM 68.0 °F - 44.6 °F 43% 29.79 in 10.0 mi SSW 20.7 mph 28.8 mph N/A   Clear
10:15 PM 68.0 °F - 44.6 °F 43% 29.79 in 7.0 mi SSW 21.9 mph 29.9 mph N/A   Clear
10:35 PM 68.0 °F - 44.6 °F 43% 29.78 in 10.0 mi SSW 23.0 mph 32.2 mph N/A   Scattered Clouds
10:55 PM 68.0 °F - 44.6 °F 43% 29.78 in 10.0 mi SSW 20.7 mph 28.8 mph N/A   Scattered Clouds
11:15 PM 68.0 °F - 44.6 °F 43% 29.78 in 10.0 mi SSW 24.2 mph 29.9 mph N/A   Mostly Cloudy
11:35 PM 68.0 °F - 44.6 °F 43% 29.77 in 10.0 mi SSW 19.6 mph 26.5 mph N/A   Scattered Clouds
11:55 PM 68.0 °F - 44.6 °F 43% 29.77 in 10.0 mi SSW 20.7 mph 27.6 mph N/A   Scattered Clouds